Terug naar catalogus

FENGYUN 1C DEB

ActiefSSO
NORAD 31180·DEBRIS·🇨🇳 China

Gelanceerd May 10, 1999 vanaf Taiyuan Satellite Launch Center

Loading…

Volgende Passages (komende 24 uur)

TLE

VersSource: Space-Track

Epoch: Sep 13, 2026, 07:36 UTC

1 31180U 99025BJJ 26256.31687020  .00000164  00000-0  96987-4 0  9990
2 31180  99.2554  23.2932 0497068  59.9058 332.7289 13.70692219678285

Volg FENGYUN 1C DEB in realtime met AllMySat

Download on the App Store